Cortez, CO

6:55 PM MDT on October 17, 2017 (GMT -0600)
Cortez Municipal

Weather History for KCEZ - April, 2013

Change the Weather History Date:

Thursday, April 25, 2013

  Actual Average Record
Temperature  
Mean Temperature 50 °F 50 °F  
Max Temperature 72 °F 68 °F 75 °F (2001)
Min Temperature 27 °F 32 °F 21 °F (2006)
Degree Days  
Heating Degree Days 15 15  
Month to date heating degree days 494 468  
Since 1 July heating degree days 6092 5998  
Cooling Degree Days 0 0  
Month to date cooling degree days 0 0  
Year to date cooling degree days 0 0  
Moisture  
Dew Point 16 °F    
Average Humidity 31    
Maximum Humidity 50    
Minimum Humidity 11    
Precipitation  
Precipitation 0.00 in 0.03 in 0.41 in (1999)
Month to date precipitation 0.10 0.99  
Year to date precipitation 2.61 4.07  
Sea Level Pressure  
Sea Level Pressure 29.92 in    
Wind  
Wind Speed 8 mph (South)    
Max Wind Speed 31 mph    
Max Gust Speed 38 mph    
Visibility 10 miles    
Events      
T = Trace of Precipitation, MM = Missing Value Source: NWS Daily Summary

Daily Weather History Graph

Daily Weather History Graph

Search for Another Location

Airport or City:

Trip Planner

Search our weather history database for the weather conditions in past years. The results will help you decide how hot, cold, wet, or windy it might be!

Date:

Astronomy

Apr. 25, 2013 Rise Set
Actual Time 6:26 AM MDT 7:58 PM MDT
Civil Twilight 5:58 AM MDT 8:26 PM MDT
Nautical Twilight 5:25 AM MDT 8:59 PM MDT
Astronomical Twilight 4:50 AM MDT 9:35 PM MDT
Moon 8:15 PM MDT (4/25) 6:11 AM MDT (4/25)
Length of Visible Light 14h 27m
Length of Day
13h 32m
Full, 100% of the Moon is Illuminated
Apr 25
Full
Apr 25
Full
May 2
Last Quarter
May 9
New
May 17
First Quarter

Hourly Weather History & Observations

Time (MDT) Temp. Windchill Dew Point Humidity Pressure Visibility Wind Dir Wind Speed Gust Speed Precip Events Conditions
12:53 AM 36.0 °F 33.3 °F 9.0 °F 33% 30.03 in 10.0 mi ENE 3.5 mph - N/A   Clear
1:53 AM 36.0 °F 32.1 °F 10.9 °F 36% 30.01 in 10.0 mi ENE 4.6 mph - N/A   Partly Cloudy
2:53 AM 37.9 °F 35.5 °F 12.9 °F 36% 29.98 in 10.0 mi NE 3.5 mph - N/A   Mostly Cloudy
3:53 AM 35.1 °F - 14.0 °F 42% 29.96 in 10.0 mi Calm Calm - N/A   Clear
4:53 AM 30.0 °F - 12.0 °F 47% 29.98 in 10.0 mi Calm Calm - N/A   Clear
5:53 AM 27.0 °F - 10.9 °F 51% 29.99 in 10.0 mi Calm Calm - N/A   Clear
6:53 AM 28.9 °F - 10.9 °F 47% 30.00 in 10.0 mi North - - N/A   Clear
7:53 AM 39.9 °F - 12.9 °F 33% 29.99 in 10.0 mi Calm Calm - N/A   Clear
8:53 AM 52.0 °F - 14.0 °F 22% 29.96 in 10.0 mi East 4.6 mph - N/A   Clear
9:53 AM 61.0 °F - 10.9 °F 14% 29.93 in 10.0 mi SW 6.9 mph - N/A   Clear
10:53 AM 66.0 °F - 10.9 °F 12% 29.91 in 10.0 mi SSW 10.4 mph 17.3 mph N/A   Clear
11:53 AM 69.1 °F - 15.1 °F 13% 29.92 in 10.0 mi SSW 15.0 mph 23.0 mph N/A   Clear
12:53 PM 70.0 °F - 14.0 °F 12% 29.88 in 10.0 mi South 12.7 mph 19.6 mph N/A   Clear
1:18 PM 69.8 °F - 15.8 °F 13% 30.00 in 10.0 mi WSW 10.4 mph 18.4 mph N/A   Clear
1:53 PM 70.0 °F - 15.1 °F 12% 29.85 in 10.0 mi South 13.8 mph 20.7 mph N/A   Clear
2:53 PM 69.1 °F - 14.0 °F 12% 29.82 in 10.0 mi South 9.2 mph 19.6 mph N/A   Clear
3:53 PM 69.1 °F - 17.1 °F 14% 29.82 in 3.0 mi SSW 17.3 mph 38.0 mph N/A   Haze
4:53 PM 66.0 °F - 14.0 °F 13% 29.84 in 10.0 mi West 12.7 mph - N/A   Mostly Cloudy
5:23 PM 64.4 °F - 17.6 °F 16% 29.97 in 10.0 mi South 15.0 mph - N/A   Overcast
5:53 PM 62.1 °F - 21.9 °F 21% 29.90 in 10.0 mi SSW 25.3 mph 33.4 mph N/A   Mostly Cloudy
6:53 PM 61.0 °F - 21.9 °F 22% 29.90 in 10.0 mi SW 12.7 mph - N/A   Overcast
7:53 PM 57.9 °F - 21.9 °F 25% 29.87 in 10.0 mi SSW 8.1 mph - N/A   Mostly Cloudy
8:53 PM 57.9 °F - 21.0 °F 24% 29.85 in 10.0 mi SSW 5.8 mph - N/A   Overcast
9:53 PM 55.9 °F - 21.0 °F 26% 29.86 in 10.0 mi SE 4.6 mph - N/A   Clear
10:53 PM 52.0 °F - 21.9 °F 31% 29.89 in 10.0 mi East 5.8 mph - N/A   Overcast
11:53 PM 53.1 °F - 21.9 °F 30% 29.88 in 10.0 mi WSW 5.8 mph - N/A   Mostly Cloudy